Regional Weather Roundup
Issued by NWS

Home | Current Version | Previous Version | Text Only | Print | Product List | Glossary Off
Versions: 1 2 3 4 5 6 7 8 9 10 11 12 13 14 15 16 17 18 19 20 21 22 23 24 25 26 27 28 29 30 31 32 33 34 35 36 37 38 39 40 41 42 43 44 45 46 47 48 49 50

032
ASUS45 KBOU 100707
RWRCO

WEATHER ROUNDUP FOR COLORADO
NATIONAL WEATHER SERVICE DENVER/BOULDER CO
1200 AM MST WED FEB 10 2016

NOTE: "FAIR" INDICATES FEW OR NO CLOUDS BELOW 12000 FEET WITH NO
SIGNIFICANT WEATHER AND/OR OBSTRUCTIONS TO VISIBILITY.

COZ001>005-013-030-031-100800-
...NORTHWEST COLORADO...

CITY           SKY/WX    TMP DP  RH WIND       PRES   REMARKS
CRAIG          CLOUDY     0  -4  83 CALM      30.46F
HAYDEN         CLOUDY    19  12  73 E12       30.45S WCI   7
MEEKER         CLOUDY    14   9  80 NE6       30.46S WCI   5
MOUNT WERNER   NOT AVBL
STEAMBOAT SPGS CLOUDY    12  11  93 CALM      30.48S
WALDEN         CLOUDY    12   3  67 CALM      30.44S
$$

COZ006>008-011-100800-
...WEST CENTRAL VALLEYS...

CITY           SKY/WX    TMP DP  RH WIND       PRES   REMARKS
GRAND JUNCTION CLOUDY    21  19  92 E6        30.46S WCI  13
MONTROSE       CLOUDY    24  16  71 S8        30.49F WCI  15
EAGLE          CLOUDY    18  16  93 E5        30.54S WCI  11
RIFLE          CLOUDY    17  11  77 E8        30.49S WCI   7
DELTA          CLOUDY    31  23  74 NE5       30.49S WCI  26
NUCLA          CLOUDY    30  21  69 SE5       30.49S WCI  25
$$

COZ017>023-064>068-100800-
...SOUTHWEST COLORADO...

CITY           SKY/WX    TMP DP  RH WIND       PRES   REMARKS
DURANGO        CLOUDY    23  15  71 N7        30.44R WCI  15
CORTEZ         CLOUDY    22  17  81 NE5       30.43R WCI  16
PAGOSA SPRINGS CLOUDY    19  14  79 CALM      30.46S THUNDER
TELLURIDE      CLOUDY    29   8  41 SE8       30.51F WCI  21
WOLF CREEK PAS CLOUDY    28  -4  24 NE10      30.58F WCI  19
$$

COZ009-010-012-014-032>034-037-058>063-100800-
...CENTRAL COLORADO...

CITY           SKY/WX    TMP DP  RH WIND       PRES   REMARKS
ASPEN          CLOUDY    19  11  70 S6        30.47F WCI  11
BUENA VISTA    CLOUDY    29  11  47 W3        30.45S
COPPER MTN     CLOUDY    27  -4  26 W16       30.53R WCI  14
BERTHOUD PASS  FAIR      21  10  63 NW25      30.49F WCI   4
COTTONWOOD PAS CLOUDY    37  -8  14 W20       30.47F
GUNNISON       CLOUDY    -2 -27  29 CALM      30.60S
KREMMLING      CLOUDY    -2  -8  78 CALM      30.54S
LEADVILLE      CLOUDY    17   0  47 NE5       30.49S WCI  10
MONARCH PASS   CLOUDY    21   9  58 MISG      30.64S
SALIDA         NOT AVBL
SUNLIGHT       CLOUDY    32   3  29 CALM        N/A
WILKERSON PASS CLOUDY    30  -9  17 NW10G22   30.49F WCI  21
$$

COZ069>075-100800-
...SAN LUIS VALLEY/SANGRE DE CRISTO MOUNTAINS...

CITY           SKY/WX    TMP DP  RH WIND       PRES   REMARKS
ALAMOSA        CLOUDY    20  17  88 NW3       30.45S
LA VETA PASS   CLOUDY    27  14  59 S6        30.46S WCI  20
SAGUACHE       CLOUDY    28  14  54 N7        30.47R WCI  21
$$

COZ035-036-038>040-100800-
...NORTHERN COLORADO FRONT RANGE...

CITY           SKY/WX    TMP DP  RH WIND       PRES   REMARKS
DENVER INTL AP CLOUDY    37  18  46 SW14      30.22F
DMNS CITY PARK   N/A     39  15  38 SE9G18    30.23F
AURORA         CLEAR     37  16  43 SW10      30.25F
FRONT RANGE AP   N/A     37  18  44 SW13      30.23F
ERIE MUNI ARPT CLOUDY    35  19  52 SW5       30.22F WCI  31
BOULDER MUN AP CLOUDY    52  10  19 W15G21    30.21F
CENTENNIAL     CLOUDY    38  13  35 SW8       30.26F
BROOMFIELD     CLOUDY    46  14  27 W20       30.23F
FORT COLLINS   CLOUDY    34  19  55 CALM      30.20F
LONGMONT       CLOUDY    32  19  59 CALM      30.23F
$$

COZ041-046-047-076>085-087-088-100800-
...PIKES PEAK/PALMER DIVIDE AND SOUTHERN FOOTHILLS...

CITY           SKY/WX    TMP DP  RH WIND       PRES   REMARKS
COLO. SPRINGS  CLOUDY    28  15  58 N8        30.30F WCI  20
A. F. ACADEMY  NOT AVBL
SCHRIEVER AFB  FAIR      36  16  45 W9        30.30F
ELLICOTT       NOT AVBL
FALCON         NOT AVBL
FORT CARSON    CLOUDY    30  18  60 NW15      30.28F WCI  19
LIMON          CLOUDY    30  20  66 W14       30.24F WCI  19
MONUMENT HILL  CLOUDY    32   9  37 SW10      30.32S WCI  24
TRINIDAD       CLOUDY    40  16  37 W18       30.29F
$$

COZ042>045-048>051-090-091-100800-
...NORTHEAST COLORADO...

CITY           SKY/WX    TMP DP  RH WIND       PRES   REMARKS
GREELEY ARPT     N/A     23  21  93 CALM      30.21F
AKRON          CLOUDY    34  23  64 W15       30.19F WCI  24
BURLINGTON     CLEAR     32  23  69 SW9       30.20F WCI  24
WRAY           CLEAR     36  27  72 W14       30.16F
STERLING       CLOUDY    32  27  80 S7        30.17F WCI  26
HOLYOKE        CLEAR     37  30  75 W16       30.14S
FORT MORGAN    CLOUDY    28  24  84 W10       30.20F WCI  19
$$

COZ086-089-092>099-100800-
...SOUTHEAST COLORADO...

CITY           SKY/WX    TMP DP  RH WIND       PRES   REMARKS
PUEBLO         CLOUDY    29  22  75 N10       30.28F WCI  20
LA JUNTA       CLOUDY    33  24  69 W10       30.26F WCI  25
LAMAR          CLOUDY    34  26  72 W12       30.24F WCI  25
SPRINGFIELD      N/A     35  23  61 W14       30.26F WCI  26
$$




USA.gov is the U.S. government's official web portal to all federal, state and local government web resources and services.